Location: Gro�wechsungen
(51.4926°N, 10.6901°E)
Time: 13:00:52
(UTC+00:00)

Cosmos 2082 Rocket - Pass Details

Date: 21 January 2021
Orbit: 832 x 854 km, 71.0° (Epoch: 04 March)

Event Time Altitude Azimuth Distance (km) Brightness Sun altitude
Rises 21:02:02 0° 320° (NW) 3,436 6.0 -47.2°
Reaches altitude 10° 21:05:10 10° 303° (WNW) 2,494 5.2 -47.6°
Enters shadow 21:05:15 10° 303° (WNW) 2,476 5.1 -47.6°
